GW2711 Weather Reports


time (UTC)temp
F
wind
direction
speed
knots
gust
knots
rain 1hr
in
rain 24hr
in
rain mn
in
humidity
%
barometer
mb
20260505071548 42 150 1.7 2.6 0.02 0.09 0.02 87 1013.3
20260505071034 42 149 1.7 2.6 0.02 0.09 0.02 87 1013.4
20260505070534 42 80 0.9 1.7 0.02 0.09 0.02 87 1013.3
20260505070047 42 80 1.7 1.7 0.01 0.08 0.01 87 1013.2
20260505065534 42 76 0.9 1.7 0.02 0.08 0.01 87 1013.2
20260505065030 42 76 0.0 2.6 0.01 0.07 0.00 87 1013.4
20260505064615 42 76 1.7 3.5 0.01 0.07 0.00 87 1013.3
20260505064033 42 68 1.7 3.5 0.01 0.07 0.00 87 1013.3
20260505063533 43 71 0.9 3.5 0.01 0.07 0.00 88 1013.3
20260505063045 43 71 1.7 4.3 0.02 0.07 0.00 88 1013.3
20260505062530 43 80 2.6 5.2 0.02 0.07 0.00 88 1013.1
20260505062031 43 89 1.7 5.2 0.02 0.07 0.00 88 1013.1
20260505061551 43 47 2.6 5.2 0.02 0.07 0.00 88 1013.2
20260505061031 43 63 3.5 5.2 0.02 0.07 0.00 88 1013.2
20260505060530 43 51 2.6 4.3 0.02 0.07 0.00 88 1013.1
20260505060052 43 35 2.6 4.3 0.02 0.07 0.00 88 1013.4
20260505055533 43 332 0.9 4.3 0.02 0.06 0.06 88 1013.5
20260505055033 43 332 2.6 7.0 0.02 0.06 0.06 88 1013.6
20260505054553 43 322 4.3 7.0 0.02 0.06 0.06 89 1013.5
20260505054034 43 296 4.3 7.8 0.02 0.06 0.06 89 1013.4
20260505053534 43 295 6.1 8.7 0.02 0.06 0.06 90 1013.5
20260505053048 43 270 7.0 8.7 0.02 0.05 0.05 89 1013.6
20260505052533 43 296 7.0 8.7 0.02 0.05 0.05 89 1013.6
20260505052034 43 295 7.0 9.6 0.02 0.05 0.05 89 1013.5
20260505051547 44 301 7.0 11.3 0.03 0.05 0.05 89 1013.5
20260505051031 44 298 7.8 11.3 0.04 0.05 0.05 89 1013.7
20260505050533 44 286 7.8 11.3 0.05 0.05 0.05 88 1013.6
20260505041545 45 246 2.6 8.7 0.02 0.02 0.02 82 1013.3
20260505041034 46 246 5.2 8.7 0.01 0.01 0.01 81 1013.3
20260505040536 46 251 5.2 9.6 0.00 0.00 0.00 79 1013.4
20260505040056 47 270 7.0 9.6 0.00 0.00 0.00 76 1013.2
20260505035533 48 267 6.1 8.7 0.00 0.00 0.00 75 1013.2
20260505035030 48 271 2.6 5.2 0.00 0.00 0.00 74 1013.0
20260505034604 48 189 2.6 3.5 0.00 0.00 0.00 72 1012.9
20260505034033 48 189 2.6 4.3 0.00 0.00 0.00 72 1012.7
20260505033536 48 189 2.6 4.3 0.00 0.00 0.00 71 1012.7
20260505033043 48 189 3.5 4.3 0.00 0.00 0.00 74 1012.7
20260505032532 48 360 2.6 3.5 0.00 0.00 0.00 73 1012.7
20260505032029 48 360 1.7 1.7 0.00 0.00 0.00 73 1012.7
20260505031549 48 360 0.9 1.7 0.00 0.00 0.00 73 1012.7
20260505031030 48 360 0.9 1.7 0.00 0.00 0.00 72 1012.7
20260505030537 48 360 0.9 2.6 0.00 0.00 0.00 72 1012.7
20260505030054 47 360 1.7 2.6 0.00 0.00 0.00 71 1012.7
20260505025535 47 360 1.7 2.6 0.00 0.00 0.00 71 1012.6
20260505025034 48 360 1.7 3.5 0.00 0.00 0.00 71 1012.5
20260505024549 48 360 2.6 4.3 0.00 0.00 0.00 68 1012.4
20260505024034 48 360 1.7 9.6 0.00 0.00 0.00 68 1012.3
20260505023533 48 360 4.3 9.6 0.00 0.00 0.00 67 1012.2
20260505023048 48 331 5.2 7.8 0.00 0.00 0.00 68 1012.3
20260505022534 48 33 0.9 1.7 0.00 0.00 0.00 69 1012.2
20260505022032 48 0 0.0 3.5 0.00 0.00 0.00 66 1012.2
20260505021550 48 33 0.0 3.5 0.00 0.00 0.00 65 1012.1
20260505021034 49 325 0.9 3.5 0.00 0.00 0.00 66 1012.2
20260505020536 49 44 0.9 5.2 0.00 0.00 0.00 65 1012.3
20260505020054 49 37 2.6 5.2 0.00 0.00 0.00 66 1012.3
20260505015534 49 57 3.5 5.2 0.00 0.00 0.00 65 1012.2
20260505015033 49 40 0.9 9.6 0.00 0.00 0.00 60 1012.1
20260505014549 49 32 4.3 16.5 0.00 0.00 0.00 58 1012.1
20260505014036 50 304 10.4 16.5 0.00 0.00 0.00 62 1012.1
20260505013533 50 321 7.8 17.4 0.00 0.00 0.00 60 1012.1
20260505013047 51 267 9.6 17.4 0.00 0.00 0.00 58 1012.2
20260505012533 52 277 12.2 16.5 0.00 0.00 0.00 54 1012.0
20260505012038 53 290 11.3 14.8 0.00 0.00 0.00 48 1011.8
20260505011548 54 306 11.3 13.9 0.00 0.00 0.00 47 1011.7
20260505011107 54 321 7.8 10.4 0.00 0.00 0.00 47 1011.4
20260505010535 54 312 7.0 10.4 0.00 0.00 0.00 46 1011.3
20260505010110 54 318 6.1 9.6 0.00 0.00 0.00 47 1011.2
20260505005533 54 310 7.0 9.6 0.00 0.00 0.00 45 1011.1
20260505005033 54 276 3.5 5.2 0.00 0.00 0.00 47 1011.2
20260505004558 54 296 3.5 6.1 0.00 0.00 0.00 46 1011.1
20260505004036 54 269 4.3 10.4 0.00 0.00 0.00 46 1011.2
20260505003535 54 267 4.3 10.4 0.00 0.00 0.00 45 1011.1
20260505003051 54 264 6.1 9.6 0.00 0.00 0.00 44 1011.1
20260505002536 55 278 6.1 9.6 0.00 0.00 0.00 45 1011.3
20260505002034 55 273 7.0 15.6 0.00 0.00 0.00 43 1011.3
20260505001547 55 300 8.7 15.6 0.00 0.00 0.00 42 1011.2
20260505001035 55 310 8.7 17.4 0.00 0.00 0.00 42 1011.2
20260505000533 55 313 5.2 19.1 0.00 0.00 0.00 43 1011.0
20260505000056 55 19 14.8 19.1 0.00 0.00 0.00 43 1011.1
20260504235535 55 288 10.4 17.4 0.00 0.00 0.00 45 1011.2
20260504235033 55 281 10.4 17.4 0.00 0.00 0.00 44 1011.3
20260504234553 56 52 10.4 17.4 0.00 0.00 0.00 39 1011.3
20260504234035 57 324 10.4 22.6 0.00 0.00 0.00 38 1011.4
20260504233530 57 20 15.6 22.6 0.00 0.00 0.00 38 1011.2
20260504233050 57 17 14.8 23.5 0.00 0.00 0.00 39 1011.0
20260504232534 57 10 15.6 23.5 0.00 0.00 0.00 39 1010.8
20260504232033 57 5 13.9 22.6 0.00 0.00 0.00 38 1010.7
20260504231618 57 41 16.5 22.6 0.00 0.00 0.00 38 1010.4
20260504231033 57 13 19.1 23.5 0.00 0.00 0.00 38 1010.3
20260504230534 58 5 18.2 23.5 0.00 0.00 0.00 36 1009.9
20260504230047 59 360 16.5 22.6 0.00 0.00 0.00 34 1010.1
20260504225531 61 26 9.6 13.9 0.00 0.00 0.00 30 1009.8
20260504225033 61 360 9.6 13.9 0.00 0.00 0.00 29 1009.7
20260504224546 61 17 8.7 13.0 0.00 0.00 0.00 29 1009.7
20260504224037 61 360 10.4 13.9 0.00 0.00 0.00 29 1009.6
20260504223533 61 37 9.6 13.9 0.00 0.00 0.00 28 1009.7
20260504223051 61 53 7.0 18.2 0.00 0.00 0.00 29 1009.8
20260504222532 62 42 13.0 18.2 0.00 0.00 0.00 30 1009.7
20260504222035 62 28 10.4 20.0 0.00 0.00 0.00 28 1009.7
20260504221627 62 19 17.4 20.0 0.00 0.00 0.00 28 1009.7
20260504221030 62 11 12.2 16.5 0.00 0.00 0.00 28 1009.6
20260504220534 63 360 13.9 17.4 0.00 0.00 0.00 26 1009.5
20260504220047 63 38 11.3 17.4 0.00 0.00 0.00 27 1009.5
20260504215536 64 9 8.7 16.5 0.00 0.00 0.00 26 1009.5
20260504215036 64 20 4.3 9.6 0.00 0.00 0.00 26 1009.6
20260504214547 64 325 6.1 10.4 0.00 0.00 0.00 25 1009.6
20260504214033 64 331 3.5 10.4 0.00 0.00 0.00 25 1009.6
20260504213533 65 14 7.0 14.8 0.00 0.00 0.00 26 1009.7
20260504213044 66 5 6.1 14.8 0.00 0.00 0.00 25 1009.7
20260504212533 66 331 8.7 13.0 0.00 0.00 0.00 24 1009.7
20260504212037 66 14 7.0 11.3 0.00 0.00 0.00 24 1009.7
20260504211550 66 21 6.1 16.5 0.00 0.00 0.00 26 1009.8
20260504211034 66 153 5.2 16.5 0.00 0.00 0.00 24 1009.9
20260504210534 65 299 10.4 16.5 0.00 0.00 0.00 25 1010.0
20260504210051 65 5 7.8 14.8 0.00 0.00 0.00 26 1009.9
20260504205533 65 73 10.4 14.8 0.00 0.00 0.00 25 1009.9
20260504205034 65 360 6.1 16.5 0.00 0.00 0.00 26 1010.0
20260504204548 65 5 10.4 16.5 0.00 0.00 0.00 27 1010.1
20260504204033 66 13 11.3 20.0 0.00 0.00 0.00 26 1010.1
20260504203533 66 9 14.8 20.9 0.00 0.00 0.00 26 1010.2
20260504203046 66 5 14.8 20.9 0.00 0.00 0.00 28 1010.1
20260504202533 66 19 15.6 20.9 0.00 0.00 0.00 28 1010.1
20260504202034 65 5 14.8 18.2 0.00 0.00 0.00 26 1010.1
20260504201553 65 360 13.0 20.9 0.00 0.00 0.00 27 1010.3
20260504201035 65 5 11.3 20.9 0.00 0.00 0.00 28 1010.2
20260504200534 66 9 9.6 20.0 0.00 0.00 0.00 27 1010.1
20260504200049 66 323 3.5 16.5 0.00 0.00 0.00 24 1010.4
20260504195534 65 209 10.4 16.5 0.00 0.00 0.00 24 1010.4
20260504195033 64 182 7.8 15.6 0.00 0.00 0.00 26 1010.4
20260504194553 64 184 7.8 12.2 0.00 0.00 0.00 26 1010.7
20260504194034 64 217 2.6 9.6 0.00 0.00 0.00 25 1010.5
20260504193531 64 161 7.0 12.2 0.00 0.00 0.00 24 1010.4
20260504193049 65 173 6.1 16.5 0.00 0.00 0.00 24 1010.3
20260504192533 66 136 9.6 16.5 0.00 0.00 0.00 24 1010.2
20260504192030 67 140 6.1 15.6 0.00 0.00 0.00 24 1010.1
20260504191609 67 134 10.4 14.8 0.00 0.00 0.00 26 1010.3
20260504191033 66 197 10.4 14.8 0.00 0.00 0.00 24 1010.3
20260504190533 65 191 6.1 10.4 0.00 0.00 0.00 23 1010.3
20260504190048 65 217 7.0 9.6 0.00 0.00 0.00 23 1010.3
20260504185529 65 227 6.1 24.3 0.00 0.00 0.00 23 1010.4
20260504185030 65 121 9.6 24.3 0.00 0.00 0.00 21 1010.6
20260504184556 67 211 10.4 14.8 0.00 0.00 0.00 25 1010.5
20260504184034 65 254 5.2 9.6 0.00 0.00 0.00 24 1010.5
20260504183534 65 286 7.0 11.3 0.00 0.00 0.00 25 1010.6
20260504183051 65 246 6.1 11.3 0.00 0.00 0.00 22 1010.6
20260504182533 65 266 7.0 11.3 0.00 0.00 0.00 23 1010.7
20260504182033 65 273 7.0 11.3 0.00 0.00 0.00 23 1010.7
20260504181547 65 252 3.5 9.6 0.00 0.00 0.00 25 1010.6
20260504181033 66 254 4.3 13.0 0.00 0.00 0.00 25 1010.7
20260504180534 67 246 8.7 13.0 0.00 0.00 0.00 26 1010.9
20260504180047 66 251 7.8 13.0 0.00 0.00 0.00 27 1010.8
20260504175533 64 231 7.0 15.6 0.00 0.00 0.00 27 1010.9
20260504175033 65 254 12.2 15.6 0.00 0.00 0.00 26 1011.1
20260504174549 65 271 7.8 11.3 0.00 0.00 0.00 25 1011.1
20260504174034 66 209 6.1 13.0 0.00 0.00 0.00 25 1011.2
20260504173534 66 298 5.2 13.0 0.00 0.00 0.00 26 1011.3
20260504173049 66 268 6.1 16.5 0.00 0.00 0.00 25 1011.4
20260504172534 66 5 6.1 16.5 0.00 0.00 0.00 23 1011.4
20260504172033 66 248 7.8 13.0 0.00 0.00 0.00 24 1011.5
20260504171552 66 242 6.1 12.2 0.00 0.00 0.00 23 1011.4
20260504171034 66 261 7.8 13.0 0.00 0.00 0.00 25 1011.6
20260504170534 65 228 8.7 13.0 0.00 0.00 0.00 25 1011.6
20260504151034 62 261 11.3 14.8 0.00 0.00 0.00 28 1012.1
20260504150533 61 253 10.4 13.9 0.00 0.00 0.00 29 1012.1
20260504141035 58 248 7.8 11.3 0.00 0.00 0.00 34 1012.1
20260504140532 57 239 7.0 10.4 0.00 0.00 0.00 36 1012.0
20260504130533 49 224 7.8 11.3 0.00 0.00 0.00 42 1012.1
20260504110533 46 247 2.6 3.5 0.00 0.00 0.00 44 1012.2
20260504100533 45 242 2.6 5.2 0.00 0.00 0.00 47 1012.5
20260504081556 48 211 6.1 7.8 0.00 0.00 0.00 44 1012.9
20260504081035 48 215 5.2 8.7 0.00 0.00 0.00 43 1013.0
20260504080533 49 202 7.0 8.7 0.00 0.00 0.00 42 1013.0